Date String (YYYY-MM-DD hh:mm:ss) UTC,Instrument flags,absolute air pressure of the measurement (hPa),sample flow rate (lpm),inlet stack bypass flow (lpm),air temperature of the measurement (°C),ambient temperature measured by the external sensor (°C),aerosol sample conditioner tube jacket temperature (°C),OPC LED temperature (°C),internal box temperature (°C),relative humidity of the measurement (%),span deviation,mass concentration of particles derived from Lorenz-Mie calculation of OPC scattering (μg/m³),mass concentration of particles derived from Lorenz-Mie calculation of OPC scattering (μg/m³),mass concentration of particles derived from Lorenz-Mie calculation of OPC scattering (μg/m³)
DateTimeUTC,F1_M11,P_M11,Q1_M11,Q2_M11,T1_M11,T2_M11,T3_M11,T4_M11,T5_M11,U1_M11,ZSPAN_M11,X0_M11,X2_M11,X1_M11
2023-06-19 09:00:00,SystemResetWarning,0824.0,5.02,000.00,030.2,024.9,000.0,038.7,031.4,14.9,0000.0,0007.56,0003.63,0003.02
2023-06-19 09:01:00,SystemResetWarning,0823.9,5.00,000.00,030.1,025.2,000.0,038.7,031.2,14.8,0000.0,0008.36,0003.64,0003.01
2023-06-19 09:02:00,SystemResetWarning,0824.0,5.00,000.00,030.0,025.7,000.0,038.6,031.1,14.7,0000.0,0008.19,0003.62,0003.01
2023-06-19 09:03:00,SystemResetWarning,0824.0,5.00,000.00,029.9,026.1,000.0,038.6,031.1,14.8,0000.0,0008.05,0003.59,0003.01
2023-06-19 09:04:00,SystemResetWarning,0824.0,5.00,000.00,029.9,026.5,000.0,038.6,031.1,15.0,0000.0,0008.03,0003.57,0002.99
2023-06-19 09:05:00,SystemResetWarning,0824.0,5.00,000.00,029.9,026.8,000.0,038.6,031.2,15.0,0000.0,0008.41,0003.58,0002.98
2023-06-19 09:06:00,SystemResetWarning,0823.9,4.99,000.00,029.9,027.1,000.0,038.6,031.2,15.0,0000.0,0008.90,0003.54,0002.97
2023-06-19 09:07:00,SystemResetWarning,0824.0,4.99,000.00,029.9,027.3,000.0,038.5,031.2,15.0,0000.0,0009.73,0003.52,0002.96
2023-06-19 09:08:00,SystemResetWarning,0824.0,5.01,000.00,029.9,027.5,000.0,038.5,031.2,15.2,0000.0,0009.84,0003.55,0002.97
2023-06-19 09:09:00,SystemResetWarning,0823.9,5.01,000.00,029.9,027.6,000.0,038.5,031.2,15.0,0000.0,0010.05,0003.58,0002.98
2023-06-19 09:10:00,SystemResetWarning,0824.0,5.00,000.00,029.9,027.8,000.0,038.5,031.3,14.9,0000.0,0010.55,0003.59,0002.98
2023-06-19 09:11:00,SystemResetWarning,0823.9,4.99,000.00,029.9,027.8,000.0,038.5,031.3,14.9,0000.0,0010.46,0003.59,0002.98
2023-06-19 09:12:00,SystemResetWarning,0823.9,5.00,000.00,029.9,027.9,000.0,038.5,031.3,15.2,0000.0,0009.46,0003.58,0002.97
2023-06-19 09:13:00,SystemResetWarning,0824.0,5.00,000.00,029.9,028.0,000.0,038.5,031.3,15.3,0000.0,0009.35,0003.56,0002.97
2023-06-19 09:14:00,SystemResetWarning,0824.0,5.00,000.00,029.9,028.0,000.0,038.5,031.3,15.3,0000.0,0009.41,0003.59,0002.97
2023-06-19 09:15:00,SystemResetWarning,0823.9,5.00,000.00,029.9,028.1,000.0,038.5,031.3,15.3,0000.0,0009.52,0003.65,0002.99
2023-06-19 09:16:00,SystemResetWarning,0824.0,4.99,000.00,029.9,028.1,000.0,038.5,031.3,15.4,0000.0,0009.27,0003.65,0003.00
2023-06-19 09:17:00,SystemResetWarning,0824.0,5.00,000.00,029.9,028.2,000.0,038.5,031.4,15.4,0000.0,0008.61,0003.65,0003.02
2023-06-19 09:18:00,SystemResetWarning,0823.9,5.00,000.00,029.9,028.2,000.0,038.5,031.4,15.5,0000.0,0007.62,0003.64,0003.03
2023-06-19 09:19:00,SystemResetWarning,0824.0,5.00,000.00,029.9,028.2,000.0,038.5,031.4,15.2,0000.0,0007.76,0003.60,0003.03
2023-06-19 09:20:00,SystemResetWarning,0824.0,5.00,000.00,030.0,028.3,000.0,038.5,031.4,15.0,0000.0,0007.62,0003.56,0003.01
2023-06-19 09:21:00,SystemResetWarning,0824.0,5.00,000.00,030.0,028.3,000.0,038.5,031.5,14.8,0000.0,0006.94,0003.53,0003.02
2023-06-19 09:22:00,SystemResetWarning,0823.9,5.00,000.00,030.0,028.3,000.0,038.5,031.5,14.9,0000.0,0006.88,0003.52,0003.03
2023-06-19 09:23:00,SystemResetWarning,0824.0,5.00,000.00,030.0,028.4,000.0,038.5,031.5,15.0,0000.0,0007.26,0003.54,0003.05
2023-06-19 09:24:00,SystemResetWarning,0824.0,5.00,000.00,030.0,028.4,000.0,038.5,031.5,15.2,0000.0,0007.63,0003.55,0003.05
2023-06-19 09:25:00,SystemResetWarning,0824.0,4.99,000.00,030.0,028.4,000.0,038.5,031.5,15.0,0000.0,0007.79,0003.55,0003.04
2023-06-19 09:26:00,SystemResetWarning,0824.0,5.00,000.00,030.0,028.4,000.0,038.5,031.5,14.9,0000.0,0008.42,0003.56,0003.05
2023-06-19 09:27:00,SystemResetWarning,0823.9,5.01,000.00,030.1,028.4,000.0,038.6,031.5,14.8,0000.0,0008.71,0003.58,0003.05
2023-06-19 09:28:00,SystemResetWarning,0824.0,5.01,000.00,030.1,028.4,000.0,038.6,031.6,14.7,0000.0,0009.45,0003.56,0003.03
2023-06-19 09:29:00,SystemResetWarning,0824.0,4.99,000.00,030.1,028.5,000.0,038.6,031.5,14.7,0000.0,0009.47,0003.58,0003.04
2023-06-19 09:30:00,SystemResetWarning,0824.0,5.00,000.00,030.1,028.5,000.0,038.6,031.5,14.6,0000.0,0009.44,0003.60,0003.05
2023-06-19 09:31:00,SystemResetWarning,0824.0,5.00,000.00,030.1,028.5,000.0,038.6,031.6,14.6,0000.0,0009.40,0003.64,0003.05
2023-06-19 09:32:00,SystemResetWarning,0824.0,5.00,000.00,030.1,028.5,000.0,038.6,031.6,14.6,0000.0,0009.42,0003.67,0003.03
2023-06-19 09:33:00,SystemResetWarning,0824.0,5.00,000.00,030.1,028.5,000.0,038.6,031.6,14.7,0000.0,0009.65,0003.66,0003.02
2023-06-19 09:34:00,SystemResetWarning,0824.0,5.00,000.00,030.1,028.5,000.0,038.6,031.6,14.8,0000.0,0009.46,0003.61,0003.00
2023-06-19 09:35:00,SystemResetWarning,0824.0,5.00,000.00,030.1,028.5,000.0,038.6,031.6,14.9,0000.0,0009.73,0003.63,0003.01
2023-06-19 09:36:00,SystemResetWarning,0824.0,5.00,000.00,030.2,028.5,000.0,038.7,031.6,15.1,0000.0,0010.17,0003.66,0003.00
2023-06-19 09:37:00,SystemResetWarning,0824.0,5.00,000.00,030.2,028.5,000.0,038.7,031.7,14.7,0000.0,0009.95,0003.64,0003.00
2023-06-19 09:38:00,SystemResetWarning,0824.0,5.00,000.00,030.2,028.5,000.0,038.7,031.6,14.5,0000.0,0009.85,0003.70,0003.00
2023-06-19 09:39:00,SystemResetWarning,0824.1,5.00,000.00,030.2,028.6,000.0,038.7,031.6,14.5,0000.0,0009.62,0003.74,0003.01
2023-06-19 09:40:00,SystemResetWarning,0824.2,5.00,000.00,030.2,028.6,000.0,038.7,031.7,14.7,0000.0,0010.10,0003.74,0003.01
2023-06-19 09:41:00,SystemResetWarning,0824.2,5.00,000.00,030.2,028.6,000.0,038.7,031.7,14.3,0000.0,0009.80,0003.75,0002.99
2023-06-19 09:42:00,SystemResetWarning,0824.2,5.00,000.00,030.2,028.6,000.0,038.7,031.7,14.3,0000.0,0009.90,0003.75,0003.00
2023-06-19 09:43:00,SystemResetWarning,0824.1,5.00,000.00,030.2,028.6,000.0,038.7,031.7,14.2,0000.0,0010.03,0003.76,0003.02
2023-06-19 09:44:00,SystemResetWarning,0824.1,5.00,000.00,030.2,028.6,000.0,038.7,031.7,14.3,0000.0,0009.97,0003.82,0003.01
2023-06-19 09:45:00,SystemResetWarning,0824.1,5.00,000.00,030.2,028.6,000.0,038.8,031.7,14.3,0000.0,0010.26,0003.91,0003.02
2023-06-19 09:46:00,SystemResetWarning,0824.2,5.01,000.00,030.2,028.6,000.0,038.8,031.8,14.4,0000.0,0010.32,0003.91,0003.00
2023-06-19 09:47:00,SystemResetWarning,0824.2,5.00,000.00,030.3,028.6,000.0,038.8,031.8,14.4,0000.0,0009.96,0003.87,0003.00
2023-06-19 09:48:00,SystemResetWarning,0824.1,5.00,000.00,030.3,028.6,000.0,038.8,031.7,14.4,0000.0,0009.52,0003.85,0003.01
2023-06-19 09:49:00,SystemResetWarning,0824.1,5.00,000.00,030.3,028.6,000.0,038.8,031.7,14.3,0000.0,0009.63,0003.79,0003.01
2023-06-19 09:50:00,SystemResetWarning,0824.1,5.00,000.00,030.3,028.7,000.0,038.8,031.7,13.8,0000.0,0009.40,0003.77,0003.00
2023-06-19 09:51:00,SystemResetWarning,0824.1,5.00,000.00,030.3,028.7,000.0,038.8,031.8,13.7,0000.0,0008.82,0003.77,0002.99
2023-06-19 09:52:00,SystemResetWarning,0824.1,5.00,000.00,030.3,028.7,000.0,038.8,031.7,13.6,0000.0,0009.90,0003.77,0003.00
2023-06-19 09:53:00,SystemResetWarning,0824.1,5.00,000.00,030.3,028.7,000.0,038.8,031.8,13.6,0000.0,0010.02,0003.75,0003.00
2023-06-19 09:54:00,SystemResetWarning,0824.2,5.00,000.00,030.3,028.7,000.0,038.8,031.7,13.6,0000.0,0010.60,0003.75,0003.00
2023-06-19 09:55:00,SystemResetWarning,0824.2,5.00,000.00,030.3,028.7,000.0,038.9,031.8,14.0,0000.0,0010.50,0003.72,0003.01
2023-06-19 09:56:00,SystemResetWarning,0824.2,5.00,000.00,030.3,028.7,000.0,038.9,031.8,14.3,0000.0,0010.81,0003.69,0003.01
2023-06-19 09:57:00,SystemResetWarning,0824.2,5.01,000.00,030.3,028.7,000.0,038.9,031.8,14.3,0000.0,0010.92,0003.68,0003.03
2023-06-19 09:58:00,SystemResetWarning,0824.1,5.00,000.00,030.4,028.7,000.0,038.9,031.8,14.1,0000.0,0011.37,0003.70,0003.02
2023-06-19 09:59:00,SystemResetWarning,0824.1,5.00,000.00,030.4,028.7,000.0,038.9,031.8,13.9,0000.0,0011.66,0003.71,0003.03
